Location: Unspecified
(0.0000°N, 0.0000°E)
Time: 03:41:12
(UTC+00:00)

Courier 1B Rocket - All Passes

Search period start: 19 August 2017 00:00
Search period end: 29 August 2017 00:00
Orbit: 920 x 1202 km, 28.2° (Epoch: 18 August)

Date Brightness Start Highest point End Pass type
(mag) Time Alt. Az. Time Alt. Az. Time Alt. Az.
19 Aug - 00:10:01 10° W 00:15:45 29° SSW 00:21:13 10° SSE night (unlit)
19 Aug - 07:52:14 10° SSW 07:56:33 18° SSE 08:01:00 10° ESE daylight
19 Aug - 09:43:35 10° SW 09:50:21 62° SSE 09:57:38 10° ENE daylight
19 Aug - 11:37:28 10° W 11:44:08 41° NNW 11:51:13 10° NE daylight
19 Aug - 13:35:01 10° NW 13:38:46 14° NNW 13:42:33 10° N daylight
19 Aug - 19:22:11 10° NNW 19:26:45 17° NNE 19:31:10 10° ENE visible
19 Aug - 21:14:01 10° NW 21:21:04 51° NNE 21:27:38 10° ESE visible
19 Aug - 23:08:03 10° WNW 23:14:39 45° SSW 23:20:51 10° SE night (unlit)
20 Aug - 01:05:53 10° SW 01:08:34 13° SSW 01:11:11 10° S night (unlit)
20 Aug - 06:53:13 10° S 06:55:10 11° SSE 06:57:09 10° SE daylight
20 Aug - 08:43:00 10° SW 08:49:13 40° SSE 08:55:50 10° E daylight
20 Aug - 10:36:01 10° WSW 10:42:51 59° NNW 10:50:12 10° NE daylight
20 Aug - 12:32:03 10° WNW 12:37:07 19° NNW 12:42:20 10° NNE daylight
20 Aug - 18:22:12 10° N 18:25:05 12° NNE 18:27:54 10° NE visible
20 Aug - 20:13:05 10° NW 20:19:47 35° NNE 20:26:06 10° E visible
20 Aug - 22:06:23 10° WNW 22:13:34 70° SSW 22:20:14 10° SE visible
21 Aug - 00:02:33 10° WSW 00:07:16 20° SSW 00:11:47 10° SSE night (unlit)
21 Aug - 07:42:43 10° SSW 07:48:04 26° SSE 07:53:41 10° E daylight
21 Aug - 09:34:54 10° WSW 09:41:40 87° NNW 09:48:58 10° ENE daylight
21 Aug - 11:29:45 10° W 11:35:36 27° NNW 11:41:47 10° NNE daylight
21 Aug - 19:12:21 10° NNW 19:18:23 25° NNE 19:24:10 10° ENE visible
21 Aug - 21:04:59 10° NW 21:12:26 79° NNE 21:19:19 10° ESE visible
21 Aug - 23:00:02 10° W 23:06:03 30° SSW 23:11:45 10° SSE night (unlit)
22 Aug - 06:42:49 10° SSW 06:46:51 17° SSE 06:51:01 10° ESE daylight
22 Aug - 08:34:06 10° SW 08:40:34 63° SSE 08:47:32 10° ENE daylight
22 Aug - 10:27:57 10° W 10:34:15 38° NNW 10:41:00 10° NE daylight
22 Aug - 12:25:37 10° NW 12:28:51 13° NNW 12:32:08 10° N daylight
22 Aug - 18:11:51 10° NNW 18:16:50 18° NNE 18:21:42 10° ENE daylight
22 Aug - 20:03:49 10° NW 20:11:12 54° NNE 20:18:07 10° ESE visible
22 Aug - 21:57:58 10° WNW 22:04:54 46° SSW 22:11:22 10° SE visible
22 Aug - 23:55:53 10° SW 23:58:54 13° SSW 00:01:50 10° S night (unlit)
23 Aug - 05:43:54 10° S 05:45:32 11° SSE 05:47:10 10° SE daylight
23 Aug - 07:33:32 10° SW 07:39:31 40° SSE 07:45:49 10° E daylight
23 Aug - 09:26:32 10° WSW 09:33:02 56° NNW 09:40:02 10° NE daylight
23 Aug - 11:22:38 10° WNW 11:27:13 18° NNW 11:32:01 10° NNE daylight
23 Aug - 17:11:47 10° N 17:15:08 13° NNE 17:18:28 10° NE daylight
23 Aug - 19:02:51 10° NW 19:09:52 37° NNE 19:16:33 10° E visible
23 Aug - 20:56:15 10° WNW 21:03:44 70° SSW 21:10:43 10° SE visible
23 Aug - 22:52:31 10° WSW 22:57:32 20° SSW 23:02:21 10° SSE night (unlit)
24 Aug - 06:33:15 10° SSW 06:38:25 26° SSE 06:43:46 10° E daylight
24 Aug - 08:25:27 10° WSW 08:31:56 84° NNW 08:38:53 10° ENE daylight
24 Aug - 10:20:20 10° W 10:25:46 25° NNW 10:31:31 10° NNE daylight
24 Aug - 18:02:06 10° NNW 18:08:25 26° NNE 18:14:33 10° E daylight
24 Aug - 19:54:48 10° WNW 20:02:31 81° NNE 20:09:46 10° ESE visible
24 Aug - 21:49:56 10° W 21:56:16 31° SSW 22:02:15 10° SSE visible
25 Aug - 05:33:19 10° SSW 05:37:15 17° SSE 05:41:13 10° ESE visible
25 Aug - 07:24:37 10° SW 07:30:54 64° SSE 07:37:32 10° ENE daylight
25 Aug - 09:18:32 10° W 09:24:29 36° NNW 09:30:49 10° NE daylight
25 Aug - 11:16:32 10° NW 11:19:00 12° NNW 11:21:31 10° N daylight
25 Aug - 17:01:38 10° NNW 17:06:51 19° NNE 17:12:01 10° ENE daylight
25 Aug - 18:53:37 10° NW 19:01:13 56° NNE 19:08:29 10° ESE visible
25 Aug - 20:47:49 10° WNW 20:55:02 46° SSW 21:01:49 10° SE visible
25 Aug - 22:45:43 10° SW 22:49:09 14° SSW 22:52:30 10° S night (unlit)
26 Aug - 04:34:19 10° S 04:35:56 11° SSE 04:37:33 10° SE visible
26 Aug - 06:24:03 10° SW 06:29:53 40° SSE 06:35:56 10° E daylight
26 Aug - 08:17:07 10° WSW 08:23:20 53° NNW 08:29:57 10° NE daylight
26 Aug - 10:13:21 10° WNW 10:17:26 16° NNW 10:21:40 10° NNE daylight
26 Aug - 16:01:36 10° N 16:05:10 13° NNE 16:08:43 10° NE daylight
26 Aug - 17:52:40 10° NW 17:59:51 39° NNE 18:06:51 10° E daylight
26 Aug - 19:46:04 10° WNW 19:53:47 69° SSW 20:01:05 10° SE visible
26 Aug - 21:42:23 10° WSW 21:47:44 21° SSW 21:52:52 10° SSE visible
27 Aug - 05:23:42 10° SSW 05:28:50 26° SSE 05:34:01 10° E visible
27 Aug - 07:15:59 10° WSW 07:22:18 82° NNW 07:28:55 10° ENE daylight
27 Aug - 09:11:00 10° WNW 09:16:02 23° NNW 09:21:19 10° NNE daylight
27 Aug - 16:51:58 10° NNW 16:58:23 27° NNE 17:04:45 10° E daylight
27 Aug - 18:44:38 10° WNW 18:52:29 83° NNE 19:00:04 10° ESE visible
27 Aug - 20:39:47 10° W 20:46:22 31° SSW 20:52:40 10° SSE visible
28 Aug - 04:23:40 10° SSW 04:27:40 17° SSE 04:31:39 10° ESE visible
28 Aug - 06:15:08 10° SW 06:21:19 65° SSE 06:27:41 10° ENE daylight
28 Aug - 08:09:09 10° W 08:14:49 33° NNW 08:20:45 10° NE daylight
28 Aug - 10:07:55 10° NNW 10:09:15 11° NNW 10:10:35 10° N daylight
28 Aug - 15:51:34 10° NNW 15:56:51 19° NNE 16:02:08 10° ENE daylight
28 Aug - 17:43:29 10° NW 17:51:10 58° NNE 17:58:42 10° ESE daylight
28 Aug - 19:37:40 10° W 19:45:03 46° SSW 19:52:08 10° SE visible
28 Aug - 21:35:29 10° SW 21:39:20 15° SSW 21:43:04 10° S visible
